Regional Weather Roundup
Issued by NWS

Home | Current Version | Previous Version | Text Only | Print | Product List | Glossary On
Versions: 1 2 3 4 5 6 7 8 9 10 11 12 13 14 15 16 17 18 19 20 21 22 23 24 25 26 27 28 29 30 31 32 33 34 35 36 37 38 39 40 41 42 43 44 45 46 47 48 49 50
000
ASUS44 KEWX 221602
RWRTX
SOUTH TEXAS REGIONAL WEATHER ROUNDUP
NATIONAL WEATHER SERVICE AUSTIN/SAN ANTONIO TX
1100 AM CDT MON SEP 22 2014

NOTE: "FAIR" INDICATED FEW OR NO CLOUDS BELOW 12,000 FEET WITH NO
SIGNIFICANT WEATHER AND/OR OBSTRUCTIONS TO VISIBILITY.

* - THESE STATIONS ARE NOT NWS OR FAA STATIONS...AND ARE NOT SUBJECT
    TO NWS AND FAA QUALITY CONTROL.

TXZ171-172-183>190-221700-
TEXAS HILL COUNTRY AND EDWARDS PLATEAU

CITY           SKY/WX    TMP DP  RH WIND       PRES   REMARKS
JUNCTION       PTSUNNY   79  64  60 E5        30.21S
*LLANO         SUNNY     82  66  57 E5        30.22S
BURNET         SUNNY     82  66  58 NE8       30.21S
*HORSESHOE BAY SUNNY     81  65  59 CALM      30.18S
*KERRVILLE     SUNNY     79  68  69 CALM      30.20S
*FREDERICKSBRG SUNNY     79  66  63 E7        30.20S
*ROCKSPRINGS   PTSUNNY   79  64  61 SE5       30.25R
*BOERNE STAGE  SUNNY     82  63  51 NE3       30.19R
*CASTROVILLE   SUNNY     84  62  47 NE3       30.16S
HONDO          SUNNY     86  64  47 E8        30.17R
*UVALDE        SUNNY     82  67  60 E6        30.16S
DEL RIO        SUNNY     81  64  56 S10       30.16S
LAUGHLIN AFB   NOT AVBL
CARRIZO SPRGS  MOSUNNY   81  70  69 CALM      30.14R
$$

TXZ173-191>194-202-209-217>225-228-221700-
CENTRAL AND SOUTH CENTRAL TEXAS

CITY           SKY/WX    TMP DP  RH WIND       PRES   REMARKS
GEORGETOWN     SUNNY     82  70  65 N9        30.16S
AUSTIN/BERGSTM PTSUNNY   85  68  56 NE10      30.13S
AUSTIN/MABRY   MOSUNNY   84  67  56 VRB7      30.15S
*AUSTIN/EXEC   MOSUNNY   82  68  61 NE10      30.15S
*LAGO VISTA    MOSUNNY   84  65  51 NE8       30.18S
SAN MARCOS     SUNNY     84  66  54 N12       30.15S
NEW BRAUNFELS  MOSUNNY   86  67  52 NE10      30.13R
RANDOLPH AFB   NOT AVBL
PT SAN ANTONIO NOT AVBL
SAN ANTONIO    PTSUNNY   87  65  47 VRB7      30.15R
STINSON FIELD  SUNNY     88  65  46 NE9       30.12S HX  90
*PLEASANTON    SUNNY     85  66  51 NE6       30.13S
*LA GRANGE     MOSUNNY   84  72  67 N3        30.10S HX  90
*GIDDINGS      MOSUNNY   82  67  60 NE5       30.16S
*GONZALES      MOSUNNY   83  71  66 N6        30.12S
$$

TXZ163>164-176>182-195>201-210>213-226-227-235-221700-
SOUTHEAST TEXAS

CITY           SKY/WX    TMP DP  RH WIND       PRES   REMARKS
COLLEGE STN    MOSUNNY   82  71  69 N10       30.12R
*BRYAN         MOSUNNY  N/A N/A N/A NE10      30.12S
*CALDWELL      MOSUNNY   79  72  78 N7        30.16R HAZE
*CROCKETT      MOSUNNY   82  66  57 NE14      30.17R
*BRENHAM       MOSUNNY   82  72  70 N8        30.12S
HUNTSVILLE     SUNNY     82  69  64 E5        30.12S
CONROE         MOSUNNY   82  71  69 NE6       30.10S
HOUSTON BUSH   PTSUNNY   85  71  63 VRB3      30.08S HX  90
HOUSTON HOBBY  MOSUNNY   87  71  58 NE3       30.07F HX  93
*HOUSTON SW AP MOSUNNY   76  65  68 N5        30.09S
PEARLAND       MOSUNNY   88  71  57 NE5       30.09S HX  94
HOUSTON HOOKS  MOSUNNY   84  71  65 N6        30.09S
ELLINGTON FLD  MOSUNNY   88  75  66 N3        30.09S HX  97
SUGAR LAND     MOSUNNY   87  71  58 CALM      30.08S HX  93
*HOUSTON EXEC  MOSUNNY   84  84 100 N5        30.10S HX 104
*CLEVELAND MUN MOSUNNY   82  74  78 NE3       30.10S HAZE
*WHARTON       SUNNY     85  71  61 N6        30.10S HX  90
$$

TXZ214>216-236>238-221700-
THE UPPER TEXAS COAST

CITY           SKY/WX    TMP DP  RH WIND       PRES   REMARKS
*ORANGE        SUNNY     84  72  66 N3        30.09S
PORT ARTHUR    SUNNY     88  72  58 VRB5      30.07S HX  94
GALVESTON      SUNNY     86  74  67 N8        30.08R HX  94
ANGLETON       SUNNY     86  71  60 NE9       30.08S HX  91
*BAY CITY      SUNNY     87  74  65 NE3       30.08S HX  94
PALACIOS       SUNNY     86  72  62 NE8       30.08S HX  92
$$

TXZ229>234-239>247-221700-
TEXAS COASTAL BEND AND RIO GRANDE PLAINS

CITY           SKY/WX    TMP DP  RH WIND       PRES   REMARKS
VICTORIA       SUNNY     88  72  58 NE10      30.10R HX  94
*BEEVILLE      SUNNY     85  69  58 MISG      30.10S
ROCKPORT       SUNNY     85  73  67 NE8       30.08R HX  91
*PORT ARANSAS  MOSUNNY   84  75  73 NE13G22   30.06F HX  92
*PORT LAVACA   SUNNY     84  72  68 NE8       30.08S
*INGLESIDE     MOSUNNY   84  73  70 N10       30.07S HX  91
CORPUS CHRISTI PTSUNNY   85  74  69 NE14      30.07S HX  92
CORPUS NAS     PTSUNNY   85  76  74 NE17      30.06S HX  94
*ROBSTOWN      SUNNY     85  74  70 NE12      30.08S HX  92
ALICE          MOSUNNY   85  74  69 NE12      30.08S HX  92
KINGSVILLE NAS CLOUDY    78  76  93 NE12G20   30.07S
COTULLA        MOSUNNY   84  69  60 VRB5      30.13S
*FAITH RANCH   MOSUNNY   81  68  65 NE8       30.15R
LAREDO         MOSUNNY   83  72  69 NE12      30.14S
$$

TXZ248>255-221700-
DEEP SOUTH TEXAS

CITY           SKY/WX    TMP DP  RH WIND       PRES   REMARKS
BROWNSVILLE    MOSUNNY   87  77  72 NE9       30.01S HX  99
PORT ISABEL    NOT AVBL
*SOUTH PADRE   MOSUNNY   86  77  74 NE6       30.02R HX  97
HARLINGEN      PTSUNNY   80  76  87 NE9       30.02S
*HEBBRONVILLE    N/A     81  72  74 NE8       30.11S
MCALLEN        PTSUNNY   83  74  74 NE12G20   30.05R
*WESLACO       CLOUDY    83  74  74 NE12G20   30.04R
FALFURRIAS     MOSUNNY  N/A N/A N/A NE8       30.07S
EDINBURG       MOSUNNY   87  73  64 NE10G18   30.05S HX  94
*ZAPATA        MOSUNNY   83  69  64 E7        30.10R
$$

TXZ213>215-236>238-242>244-246-247-251-254-255-221700-
CMAN STATIONS

STATION/POSITION TIME  TEMP    WIND        PRES    WAVE
                       AIR SEA DIR/SP/G            HT/PER
                 (UTC) (F)     (DEG/KT/KT) (MB)    (FT/S)
SABINE PASS      1500   82 83   30/  8/ 11 1018.4
SEA RIM ST PARK  1500   81     360/  5/  6 1018.8
NORTH JETTY/GLS  1500   84 83                N/A
EAGLE POINT      1500   81 83   40/  7/  8 1018.6
MORGANS POINT    1500   83        CALM     1018.3
MISSION/ARANSAS  1500           30/ 11     1019.0
PORT O`CONNOR    1500           20/ 10/ 11   N/A
PORT ARANSAS     1500   80 83   10/ 13/ 13 1018.6
MALAQUITE BEACH  1500   83 83   40/ 13/ 16 1017.3
BAFFIN BAY       1500   83 79   60/ 14/ 18 1017.7
PORT ISABEL      1500   84 83   70/  6/  9 1016.7
$$

GMZ080-GMZ150>470-221700-
OFFSHORE BUOY REPORTS

STATION/POSITION TIME  TEMP    WIND        PRES    WAVE
                       AIR SEA DIR/SP/G            HT/PER
                 (UTC) (F)     (DEG/KT/KT) (MB)    (FT/S)
20 E GALVESTON   1600   81 84   20/  6/  8 1017.8    2/ 5
90 E PT ARANSAS  1600   83 85   40/ 14/ 16 1017.8    4/ 7
35 NE PT MANSFLD 1500   83 84   50/ 17/ 19 1016.0    5/ 6
200 E PT ISABEL  1500   81 85  110/ 14/ 16 1015.9    3/ 6
$$



USA.gov is the U.S. government's official web portal to all federal, state and local government web resources and services.